Fort Myers, FL

4:17 AM EST on December 11, 2016 (GMT -0500)
Page

Weather History for KFMY - January, 2015

Change the Weather History Date:

Thursday, January 15, 2015

  Actual Average Record
Temperature  
Mean Temperature 66 °F 64 °F  
Max Temperature 71 °F 74 °F 87 °F (1947)
Min Temperature 60 °F 53 °F 31 °F (1948)
Degree Days  
Heating Degree Days 0 4  
Month to date heating degree days 13 60  
Since 1 July heating degree days 102 153  
Cooling Degree Days 1 3  
Month to date cooling degree days 75 44  
Year to date cooling degree days 75 44  
Growing Degree Days 15 (Base 50)    
Moisture  
Dew Point 59 °F    
Average Humidity 86    
Maximum Humidity 97    
Minimum Humidity 73    
Precipitation  
Precipitation 0.00 in 0.06 in 2.59 in (2016)
Month to date precipitation 0.45 0.95  
Year to date precipitation 0.45 0.95  
Sea Level Pressure  
Sea Level Pressure 30.09 in    
Wind  
Wind Speed 7 mph (NNE)    
Max Wind Speed 15 mph    
Max Gust Speed 20 mph    
Visibility 10 miles    
Events      
T = Trace of Precipitation, MM = Missing Value Source: NWS Daily Summary

Daily Weather History Graph

Daily Weather History Graph

Search for Another Location

Airport or City:

Trip Planner

Search our weather history database for the weather conditions in past years. The results will help you decide how hot, cold, wet, or windy it might be!

Date:

Astronomy

Jan. 15, 2015 Rise Set
Actual Time 7:17 AM EST 5:56 PM EST
Civil Twilight 6:52 AM EST 6:21 PM EST
Nautical Twilight 6:23 AM EST 6:49 PM EST
Astronomical Twilight 5:55 AM EST 7:17 PM EST
Moon 2:19 AM EST (1/15) 1:40 PM EST (1/15)
Length of Visible Light 11h 29m
Length of Day
10h 39m
Waning Crescent, 28% of the Moon is Illuminated
Jan 15
Waning Crescent
Jan 20
New
Jan 26
First Quarter
Feb 3
Full
Feb 11
Last Quarter

Hourly Weather History & Observations

Time (EST) Temp. Dew Point Humidity Pressure Visibility Wind Dir Wind Speed Gust Speed Precip Events Conditions
12:20 AM 64.9 °F 61.0 °F 87% 30.10 in 10.0 mi NNE 9.2 mph - N/A   Overcast
12:53 AM 64.0 °F 60.1 °F 87% 30.10 in 10.0 mi NNE 8.1 mph - N/A   Overcast
1:53 AM 64.0 °F 60.1 °F 87% 30.11 in 10.0 mi NNE 9.2 mph - N/A   Overcast
2:53 AM 63.0 °F 59.0 °F 87% 30.09 in 10.0 mi ENE 4.6 mph - N/A   Overcast
3:53 AM 62.1 °F 57.9 °F 86% 30.09 in 10.0 mi NE 6.9 mph - N/A   Overcast
4:53 AM 62.1 °F 57.9 °F 86% 30.09 in 10.0 mi NE 6.9 mph - N/A   Overcast
5:53 AM 62.1 °F 57.9 °F 86% 30.09 in 10.0 mi ENE 5.8 mph - N/A   Mostly Cloudy
6:14 AM 61.0 °F 59.0 °F 93% 30.08 in 10.0 mi NE 6.9 mph - N/A   Overcast
6:30 AM 61.0 °F 59.0 °F 93% 30.09 in 10.0 mi NE 8.1 mph - N/A   Overcast
6:53 AM 61.0 °F 57.9 °F 90% 30.11 in 10.0 mi NE 4.6 mph - N/A   Overcast
7:12 AM 60.1 °F 57.0 °F 90% 30.10 in 10.0 mi NNE 6.9 mph - N/A   Overcast
7:53 AM 60.1 °F 57.0 °F 90% 30.12 in 10.0 mi NNE 5.8 mph - N/A   Overcast
8:53 AM 60.1 °F 57.0 °F 90% 30.14 in 10.0 mi NE 5.8 mph - N/A   Overcast
9:53 AM 61.0 °F 57.0 °F 87% 30.15 in 10.0 mi NNE 8.1 mph - N/A   Overcast
10:38 AM 63.0 °F 57.9 °F 84% 30.12 in 10.0 mi East 5.8 mph - N/A   Overcast
10:53 AM 63.0 °F 57.9 °F 84% 30.12 in 10.0 mi East 4.6 mph - N/A   Overcast
11:53 AM 64.9 °F 59.0 °F 81% 30.12 in 10.0 mi NNE 3.5 mph - N/A   Overcast
12:53 PM 66.0 °F 60.1 °F 81% 30.08 in 10.0 mi NNE 3.5 mph - N/A   Overcast
1:50 PM 69.8 °F 60.8 °F 73% 30.06 in 10.0 mi Calm Calm - N/A   Overcast
1:53 PM 69.1 °F 61.0 °F 75% 30.06 in 10.0 mi Calm Calm - N/A   Overcast
2:53 PM 70.0 °F 62.1 °F 76% 30.07 in 10.0 mi Variable 3.5 mph - N/A   Overcast
3:53 PM 69.1 °F 62.1 °F 78% 30.06 in 10.0 mi WNW 8.1 mph - N/A   Overcast
4:53 PM 66.9 °F 61.0 °F 81% 30.05 in 10.0 mi NNW 8.1 mph - N/A   Overcast
5:24 PM 66.0 °F 62.1 °F 87% 30.04 in 10.0 mi NNE 8.1 mph - N/A   Overcast
5:53 PM 66.0 °F 62.1 °F 87% 30.06 in 10.0 mi North 6.9 mph - N/A   Overcast
6:40 PM 66.0 °F 62.1 °F 87% 30.06 in 10.0 mi North 9.2 mph - N/A   Overcast
6:53 PM 66.0 °F 62.1 °F 87% 30.07 in 10.0 mi North 9.2 mph - N/A   Overcast
7:51 PM 62.6 °F 60.8 °F 94% 30.08 in 4.0 mi NNE 12.7 mph - N/A   Overcast
7:53 PM 62.1 °F 60.1 °F 93% 30.09 in 4.0 mi NNE 12.7 mph - N/A   Overcast
8:53 PM 61.0 °F 59.0 °F 93% 30.09 in 10.0 mi NE 10.4 mph - N/A   Overcast
9:53 PM 61.0 °F 57.9 °F 90% 30.10 in 10.0 mi NNE 8.1 mph - N/A   Overcast
10:53 PM 61.0 °F 57.9 °F 90% 30.09 in 10.0 mi NNE 10.4 mph - N/A   Overcast
11:16 PM 61.0 °F 57.9 °F 90% 30.09 in 10.0 mi NNE 9.2 mph - N/A   Overcast
11:53 PM 60.1 °F 57.0 °F 90% 30.09 in 9.0 mi NNE 5.8 mph - N/A   Overcast